Flag for Honduras Weather past 2 weeks in La Ceiba, Honduras

Now
79 °F

Passing clouds.


Feels Like: 82 °F
Forecast: 76 / 86 °F
Wind: 5 mph from South

Location: La Ceiba Airport

Current Time: Jul 5, 2015 at 11:57:29 PM

Latest Report: Jul 5, 2015 at 11:00 PM


Visibility: N/A

Pressure: 29.98 "Hg

Humidity: 89%

Dew point: 75 °F

Location of La CeibaLocation

Historic Weather in La Ceiba — Graph

°F

La Ceiba temperature yesterday

Maximum temperature yesterday: 88 °F (at 10:00 AM)
Minimum temperature yesterday: 75 °F (at 6:00 AM)
Average temperature yesterday: 83 °F

Past Weeks' High & Low Weather Summary

 TemperatureHumidityPressure
High90 °F (Jul 2, 1:00 PM)100% (Jun 22, 6:00 AM)32.52 "Hg (Jun 22, 6:00 AM)
Low70 °F (Jul 1, 6:00 AM)62% (Jun 29, 11:00 AM)29.83 "Hg (Jul 3, 3:00 PM)
Average81 °F80%29.95 "Hg
* Reported Jun 20 10:00 PM — Jul 5 10:00 PM, La Ceiba, Weather by CustomWeather, © 2015

Note: Actual official high and low records may vary slightly from our data, if they occured in-between our weather recording intervals... More about our weather records

Advertising

La Ceiba weather history for previous 24 hours

 ConditionsComfort  
Time TempWeatherWind HumidityBarometerVisibility
10:00 PM
Sun, Jul 5
81 °FPassing clouds.6 mph89%29.98 "HgN/A
9:00 PM81 °FPassing clouds.7 mph89%29.95 "HgN/A
8:00 PM81 °FPassing clouds.7 mph89%29.95 "HgN/A
7:00 PM82 °FPassing clouds.10 mph84%29.92 "HgN/A
6:00 PM82 °FBroken clouds.15 mph89%29.92 "HgN/A
5:00 PM86 °FPartly sunny.16 mph70%29.89 "HgN/A
4:00 PM88 °FBroken clouds.10 mph70%29.89 "HgN/A
2:00 PM88 °FBroken clouds.16 mph75%29.92 "HgN/A
1:00 PM88 °FBroken clouds.12 mph75%29.95 "HgN/A
12:00 PM88 °FScattered clouds.13 mph70%29.95 "HgN/A
11:00 AM88 °FBroken clouds.5 mph70%29.98 "HgN/A
10:00 AM86 °FScattered clouds.5 mph70%29.98 "HgN/A
9:00 AM86 °FPartly sunny.3 mph70%29.98 "HgN/A
8:00 AM81 °FBroken clouds.5 mph70%29.95 "HgN/A
7:00 AM79 °FBroken clouds.6 mph79%29.95 "HgN/A
12:00 AM81 °FPassing clouds.7 mph74%29.92 "Hg5 mi
11:00 PM
Sat, Jul 4
81 °FPartly cloudy.12 mph74%29.95 "Hg5 mi
Weather by CustomWeather, © 2015

See weather overviewHow to use our weather pages